User: anonymous   Login
Location: Unspecified
(0.0000°N, 0.0000°E)
Time: 00:43:44
(UTC+02:00)
Language:

SeaSat 1 - Orbit

View from above orbital plane
View from above orbital plane
View from above satellite
View from above satellite

Ground track
Ground track

The orbit data is extracted from the following two-line orbital elements,

1 10967U 78064A   16145.93454259 -.00000011 +00000-0 +37079-4 0  9999
2 10967 107.9995 208.3145 0002344 237.2656 122.8263 14.43549108990339
Epoch (UTC): 24 May 2016 22:25:44
Eccentricity: 0.0002344
inclination: 107.9995°
perigee height: 745 km
apogee height: 748 km
right ascension of ascending node: 208.3145°
argument of perigee: 237.2656°
revolutions per day: 14.43549108
mean anomaly at epoch: 122.8263°
orbit number at epoch: 99033

The dashed part of the orbit path shows where the satellite is in the earth's shadow,  

DLR